Simultaneous Nadir Overpasses (SNOs) Predictions

Prediction of SNOs between METOP-A and NOAA-19 Satellite Orbit:

Table of predicted SNOs for the next 14.0 days since TLE Epoch: 5/31/2019
Index Date (METOP-A) Time (METOP-A) Lat,Lon (METOP-A) SZA (METOP-A ) Date (NOAA-19) Time (NOAA-19) Lat,Lon (NOAA-19) SZA (NOAA-19 ) Distance(km) Time Diff (sec)
1 06/05/2019 03:22:02 -79.68, -38.60 122.62 06/05/2019 03:20:55 -79.69, -38.63 122.63 1.11 67
2 06/05/2019 04:12:43 79.66, 128.57 57.35 06/05/2019 04:11:53 79.69, 128.65 57.37 3.31 50
3 06/05/2019 05:03:24 -79.67, -64.04 122.65 06/05/2019 05:02:55 -79.66, -63.88 122.65 3.10 29
4 06/05/2019 05:54:04 79.68, 103.40 57.37 06/05/2019 05:53:53 79.66, 103.40 57.35 2.03 11
5 06/05/2019 06:44:46 -79.66, -89.48 122.67 06/05/2019 06:44:56 -79.67, -89.43 122.66 1.77 10
6 06/05/2019 07:35:26 79.67, 77.95 57.35 06/05/2019 07:35:54 79.67, 77.85 57.34 2.12 28
7 06/05/2019 08:26:08 -79.64,-114.92 122.70 06/05/2019 08:26:57 -79.67,-114.97 122.66 3.32 49
8 06/05/2019 09:16:48 79.66, 52.51 57.32 06/05/2019 09:17:54 79.64, 52.59 57.32 2.14 66




NCC Satellite Simultaneous Nadir Overpasses (SNOs) Prediction Service
